Location: Zagreb
(45.8000°N, 16.0000°E)
Time: 17:38:17
(UTC+01:00)

N. Korean satellite - Pass Details

Date: 09 December 2021
Orbit: 447 x 491 km, 97.3° (Epoch: 23 January)

Event Time Altitude Azimuth Distance (km) Brightness Sun altitude
Rises 06:34:19 0° 350° (N) 2,462 9.8 -8.6°
Reaches altitude 10° 06:37:50 10° 311° (NW) 1,581 8.5 -8.1°
Maximum altitude 06:38:36 11° 297° (WNW) 1,541 8.4 -8.0°
Drops below altitude 10° 06:39:23 10° 284° (WNW) 1,579 8.5 -7.8°
Sets 06:42:53 0° 244° (WSW) 2,447 9.8 -7.3°
